Showing default

TJS-19, 63924

Orbit data source: Space-Track

TJS-19, 63924 is a payload satellite owned by SAST (CN) in GEO that was launched on Mon, 12 May 2025 UTC via a CHANG ZHENG 3C launch vehicle from the Xichang Space Center, China (XSC). Payload-class satellites include a variety of spacecraft equipped with specific instruments for various scientific and technological missions. These include communications satellites like Starlink; space stations such as the ISS; scientific satellites like the Hubble; Earth observation satellites from companies like Planet Labs, Umbra, and HawkEye 360; GPS; miniature CubeSats for education and research; and military/defense satellites.

Not visible in the next 10 days
Identifier
63924, 2025-097A
Orbit
GEO
Country
Flag of CNCN / PRC
Related business
Manufacturer
SAST
Mission
Operational Defense Technology
Bus & Motor
FY-4?, LAE
Mass
~3,000 kg wet, ~2,500 kg dry
Launch date (UTC)
2025-05-12 (1 year ago)
Launch vehicle
CHANG ZHENG 3C
Launch site
Xichang Space Center, China (XSC)
Object type
Payload
Rocket body
Debris
Shape & HBR
Box + 2 Pan, 15.0 m
Radar Cross Section
34.063 m², Large (>1 m²)

Expand to show TLE details & history
Last TLE update: 16 hours ago

TLE from 16 hours ago
0 TJS-19
1 63924U 25097A   26145.75431839 -.00000280  00000-0  00000+0 0  9995
2 63924   3.3235 317.1005 0001551 253.0037  86.0433  1.00275832  3916
Epoch: 2026-05-25T18:06Z
TLE epoch observation values (Epoch: 2026-05-25T18:06:13.108Z)
Latitude
-1.18578°
Longitude
141.30247°
Altitude
35,784.643 km
Speed
3.075 km/s
True Right ascension
19h 44m 46s
True Declination
-1° 11' 04"
Sunlit
Object was in daylight at epoch
Visualization orbit readout
Latitude
Unknown
Longitude
Unknown
Altitude
Unknown
Speed
Unknown
Apparent Right ascension
Unknown
Apparent Declination
Unknown
Sunlit
N/A
Visualization observer readout
Local Sidereal Time
19:08:59
Azimuth
Unknown
Elevation
Unknown
Doppler factor
Unknown
Orbital elements
Apogee altitude
35,793.065 km
Perigee altitude
35,779.986 km
Semi-major axis
42,164.663 km
Eccentricity
0.00016
Inclination
3.3235°
RAAN
317.1005°
Arg. of periapsis
253.0037°
True anomaly
86.06103°
Mean anomaly
86.0433°
Eccentric anomaly
86.05217°
Mean motion
0.25068 °/min
Orbital period
1,436.09 mins
BSTAR
0
Loading maneuver chart data...
Computing Atmospheric mass density...
Loading historical data...
Loading historical data...
Loading historical data...
Loading historical data...
Loading historical data...
Loading historical data...
Loading historical data...
Other satellites on launch #97 in the year 2025 (2025-05-12 UTC)

Documentation

Showing up to 5 results
|